Location: Waco, TX
(31.5480°N, 97.1670°W)
Time: 22:54:32
(UTC-05:00)

ISS - Pass Details

Date: 24 April 2018
Orbit: 403 x 406 km, 51.6° (Epoch: 23 April)

Event Time Altitude Azimuth Distance (km) Brightness Sun altitude
Rises 16:59:41 0° 301° (WNW) 2,320 0.6 38.0°
Reaches altitude 10° 17:02:02 10° 286° (WNW) 1,458 0.1 37.5°
Maximum altitude 17:04:41 23° 232° (SW) 911 -0.8 36.9°
Drops below altitude 10° 17:07:20 10° 177° (S) 1,452 -0.9 36.4°
Sets 17:09:39 0° 162° (SSE) 2,308 -0.1 35.9°
